| time (UTC) | temp F | wind direction | speed MPH | gust MPH | rain 1hr in | rain 24hr in | rain mn in | humidity % | barometer mb |
| 20260505214556 | 80 | 221 | 8.0 | 18.0 | 0.00 | 0.00 | 0.00 | 40 | 1012.4 |
| 20260505213052 | 81 | 191 | 5.0 | 16.0 | 0.00 | 0.00 | 0.00 | 38 | 1012.2 |
| 20260505211539 | 82 | 242 | 4.0 | 10.0 | 0.00 | 0.00 | 0.00 | 39 | 1012.2 |
| 20260505210037 | 81 | 217 | 5.0 | 14.0 | 0.00 | 0.00 | 0.00 | 40 | 1012.3 |
| 20260505204538 | 81 | 165 | 7.0 | 16.0 | 0.00 | 0.00 | 0.00 | 38 | 1012.6 |
| 20260505203043 | 82 | 208 | 5.0 | 10.0 | 0.00 | 0.00 | 0.00 | 37 | 1012.6 |
| 20260505201547 | 83 | 167 | 6.0 | 18.0 | 0.00 | 0.00 | 0.00 | 35 | 1012.6 |
| 20260505200033 | 83 | 193 | 5.0 | 16.0 | 0.00 | 0.00 | 0.00 | 34 | 1013.0 |
| 20260505194530 | 83 | 200 | 5.0 | 18.0 | 0.00 | 0.00 | 0.00 | 34 | 1013.0 |
| 20260505193042 | 82 | 161 | 5.0 | 12.0 | 0.00 | 0.00 | 0.00 | 36 | 1013.2 |
| 20260505191530 | 82 | 149 | 5.0 | 14.0 | 0.00 | 0.00 | 0.00 | 36 | 1013.3 |
| 20260505190032 | 84 | 150 | 4.0 | 14.0 | 0.00 | 0.00 | 0.00 | 34 | 1013.5 |
| 20260505184527 | 82 | 189 | 4.0 | 13.0 | 0.00 | 0.00 | 0.00 | 36 | 1013.7 |
| 20260505183042 | 82 | 191 | 6.0 | 15.0 | 0.00 | 0.00 | 0.00 | 35 | 1014.0 |
| 20260505181522 | 83 | 239 | 6.0 | 16.0 | 0.00 | 0.00 | 0.00 | 34 | 1014.1 |
| 20260505180032 | 82 | 180 | 5.0 | 14.0 | 0.00 | 0.00 | 0.00 | 36 | 1014.3 |
| 20260505174529 | 83 | 260 | 4.0 | 12.0 | 0.00 | 0.00 | 0.00 | 37 | 1014.4 |
| 20260505173028 | 83 | 170 | 6.0 | 13.0 | 0.00 | 0.00 | 0.00 | 38 | 1014.4 |
| 20260505171526 | 81 | 132 | 5.0 | 15.0 | 0.00 | 0.00 | 0.00 | 38 | 1014.6 |
| 20260505170017 | 81 | 204 | 7.0 | 15.0 | 0.00 | 0.00 | 0.00 | 38 | 1014.8 |
| 20260505164529 | 81 | 139 | 5.0 | 10.0 | 0.00 | 0.00 | 0.00 | 39 | 1015.0 |
| 20260505163010 | 80 | 245 | 5.0 | 14.0 | 0.00 | 0.00 | 0.00 | 42 | 1015.1 |
| 20260505161506 | 79 | 233 | 6.0 | 15.0 | 0.00 | 0.00 | 0.00 | 43 | 1015.2 |
| 20260505153108 | 76 | 159 | 3.0 | 10.0 | 0.00 | 0.00 | 0.00 | 50 | 1015.6 |
| 20260505151553 | 75 | 271 | 3.0 | 11.0 | 0.00 | 0.00 | 0.00 | 52 | 1016.0 |
| 20260505150109 | 74 | 223 | 2.0 | 10.0 | 0.00 | 0.00 | 0.00 | 53 | 1016.0 |
| 20260505124516 | 60 | 251 | 2.0 | 7.0 | 0.00 | 0.00 | 0.00 | 76 | 1016.0 |
| 20260505123011 | 59 | 212 | 1.0 | 8.0 | 0.00 | 0.00 | 0.00 | 79 | 1016.2 |
| 20260505121512 | 57 | 248 | 2.0 | 5.0 | 0.00 | 0.00 | 0.00 | 82 | 1016.2 |
| 20260505120009 | 55 | 196 | 2.0 | 5.0 | 0.00 | 0.00 | 0.00 | 85 | 1015.9 |
| 20260505114507 | 54 | 10 | 0.0 | 3.0 | 0.00 | 0.00 | 0.00 | 85 | 1015.7 |
| 20260505113007 | 53 | 185 | 0.0 | 2.0 | 0.00 | 0.00 | 0.00 | 84 | 1015.6 |
| 20260505111505 | 53 | 183 | 0.0 | 1.0 | 0.00 | 0.00 | 0.00 | 84 | 1015.4 |
| 20260505101552 | 55 | 230 | 0.0 | 2.0 | 0.00 | 0.00 | 0.00 | 79 | 1015.0 |
| 20260505100056 | 55 | 221 | 0.0 | 3.0 | 0.00 | 0.00 | 0.00 | 78 | 1015.0 |
| 20260505094550 | 56 | 194 | 1.0 | 5.0 | 0.00 | 0.00 | 0.00 | 77 | 1014.9 |
| 20260505093049 | 56 | 177 | 1.0 | 4.0 | 0.00 | 0.00 | 0.00 | 76 | 1014.8 |
| 20260505091549 | 57 | 201 | 0.0 | 8.0 | 0.00 | 0.00 | 0.00 | 76 | 1014.7 |
| 20260505090052 | 56 | 236 | 2.0 | 4.0 | 0.00 | 0.00 | 0.00 | 75 | 1014.6 |
| 20260505084545 | 56 | 187 | 2.0 | 6.0 | 0.00 | 0.00 | 0.00 | 75 | 1014.4 |
| 20260505083044 | 55 | 169 | 3.0 | 9.0 | 0.00 | 0.00 | 0.00 | 76 | 1014.5 |
| 20260505081547 | 55 | 248 | 2.0 | 5.0 | 0.00 | 0.00 | 0.00 | 75 | 1014.3 |
| 20260505080049 | 56 | 245 | 0.0 | 3.0 | 0.00 | 0.00 | 0.00 | 73 | 1014.4 |
| 20260505074535 | 57 | 202 | 0.0 | 1.0 | 0.00 | 0.00 | 0.00 | 71 | 1014.3 |
| 20260505073044 | 58 | 202 | 0.0 | 2.0 | 0.00 | 0.00 | 0.00 | 69 | 1014.2 |
| 20260505071529 | 59 | 198 | 0.0 | 3.0 | 0.00 | 0.00 | 0.00 | 68 | 1014.0 |
| 20260505070027 | 59 | 202 | 1.0 | 4.0 | 0.00 | 0.00 | 0.00 | 66 | 1013.9 |
| 20260505064524 | 60 | 253 | 1.0 | 4.0 | 0.00 | 0.00 | 0.00 | 64 | 1014.0 |
| 20260505063023 | 61 | 205 | 1.0 | 4.0 | 0.00 | 0.00 | 0.00 | 62 | 1013.9 |
| 20260505061523 | 62 | 183 | 0.0 | 4.0 | 0.00 | 0.00 | 0.00 | 61 | 1013.8 |
| 20260505060027 | 62 | 206 | 2.0 | 8.0 | 0.00 | 0.00 | 0.00 | 59 | 1013.9 |
| 20260505054523 | 62 | 185 | 3.0 | 9.0 | 0.00 | 0.00 | 0.00 | 59 | 1013.9 |
| 20260505053021 | 62 | 179 | 2.0 | 11.0 | 0.00 | 0.00 | 0.00 | 59 | 1013.8 |
| 20260505051523 | 62 | 169 | 2.0 | 7.0 | 0.00 | 0.00 | 0.00 | 59 | 1013.9 |
| 20260505041521 | 61 | 220 | 1.0 | 4.0 | 0.00 | 0.00 | 0.00 | 61 | 1013.8 |
| 20260505040011 | 60 | 275 | 2.0 | 6.0 | 0.00 | 0.00 | 0.00 | 60 | 1013.7 |
| 20260505034510 | 60 | 230 | 2.0 | 4.0 | 0.00 | 0.00 | 0.00 | 63 | 1013.8 |
| 20260505033008 | 59 | 228 | 2.0 | 6.0 | 0.00 | 0.00 | 0.00 | 64 | 1013.7 |
| 20260505031507 | 59 | 226 | 1.0 | 4.0 | 0.00 | 0.00 | 0.00 | 66 | 1013.6 |
| 20260505030008 | 60 | 197 | 1.0 | 4.0 | 0.00 | 0.00 | 0.00 | 66 | 1013.7 |
| 20260505024506 | 60 | 213 | 0.0 | 3.0 | 0.00 | 0.00 | 0.00 | 65 | 1013.7 |
| 20260505023005 | 61 | 214 | 0.0 | 3.0 | 0.00 | 0.00 | 0.00 | 64 | 1013.6 |
| 20260505021507 | 62 | 208 | 0.0 | 1.0 | 0.00 | 0.00 | 0.00 | 62 | 1013.6 |
| 20260505020004 | 63 | 208 | 0.0 | 3.0 | 0.00 | 0.00 | 0.00 | 61 | 1013.6 |
| 20260505014504 | 64 | 207 | 0.0 | 3.0 | 0.00 | 0.00 | 0.00 | 60 | 1013.6 |
| 20260505013002 | 65 | 206 | 0.0 | 3.0 | 0.00 | 0.00 | 0.00 | 59 | 1013.3 |
| 20260505011502 | 66 | 231 | 1.0 | 3.0 | 0.00 | 0.00 | 0.00 | 57 | 1013.2 |
| 20260505010002 | 68 | 229 | 0.0 | 2.0 | 0.00 | 0.00 | 0.00 | 54 | 1012.9 |
| 20260505004503 | 70 | 230 | 0.0 | 1.0 | 0.00 | 0.00 | 0.00 | 53 | 1012.9 |
| 20260505003101 | 71 | 230 | 0.0 | 1.0 | 0.00 | 0.00 | 0.00 | 50 | 1012.8 |
| 20260505001632 | 73 | 230 | 0.0 | 2.0 | 0.00 | 0.00 | 0.00 | 49 | 1012.8 |
| 20260505000138 | 74 | 231 | 1.0 | 4.0 | 0.00 | 0.00 | 0.00 | 47 | 1012.8 |
| 20260504234614 | 75 | 154 | 2.0 | 5.0 | 0.00 | 0.00 | 0.00 | 43 | 1012.6 |
| 20260504233107 | 75 | 198 | 2.0 | 6.0 | 0.00 | 0.00 | 0.00 | 43 | 1012.3 |
| 20260504231558 | 76 | 192 | 3.0 | 9.0 | 0.00 | 0.00 | 0.00 | 42 | 1012.3 |
| 20260504230059 | 76 | 219 | 1.0 | 8.0 | 0.00 | 0.00 | 0.00 | 43 | 1012.3 |
| 20260504224609 | 77 | 181 | 2.0 | 7.0 | 0.00 | 0.00 | 0.00 | 41 | 1012.4 |
| 20260504223055 | 78 | 230 | 5.0 | 11.0 | 0.00 | 0.00 | 0.00 | 40 | 1012.4 |
| 20260504221556 | 78 | 167 | 5.0 | 9.0 | 0.00 | 0.00 | 0.00 | 40 | 1012.6 |
| 20260504220058 | 78 | 346 | 2.0 | 9.0 | 0.00 | 0.00 | 0.00 | 40 | 1012.5 |